TimeCST,TemperatureF,Dew PointF,Humidity,Sea Level PressureIn,VisibilityMPH,Wind Direction,Wind SpeedMPH,Gust SpeedMPH,PrecipitationIn,Events,Conditions,WindDirDegrees,DateUTC
12:15 AM,27.5,27.5,100,30.23,4.0,NE,4.6,-,N/A,,Overcast,40,2013-02-08 06:15:00
12:35 AM,27.9,27.9,100,30.24,4.0,East,5.8,-,N/A,,Overcast,80,2013-02-08 06:35:00
12:55 AM,27.3,27.3,100,30.23,4.0,East,3.5,-,N/A,,Overcast,80,2013-02-08 06:55:00
1:15 AM,27.3,27.3,100,30.22,4.0,ENE,4.6,-,N/A,,Overcast,60,2013-02-08 07:15:00
1:35 AM,27.3,27.3,100,30.23,3.0,East,3.5,-,N/A,,Overcast,90,2013-02-08 07:35:00
1:55 AM,27.1,27.1,100,30.23,2.5,NE,4.6,-,N/A,,Overcast,40,2013-02-08 07:55:00
2:15 AM,27.3,27.3,100,30.24,3.0,Calm,Calm,-,N/A,,Overcast,0,2013-02-08 08:15:00
2:35 AM,27.1,27.1,100,30.24,1.8,ESE,4.6,-,N/A,,Overcast,110,2013-02-08 08:35:00
2:55 AM,26.6,26.6,100,30.25,1.0,Calm,Calm,-,N/A,,Overcast,0,2013-02-08 08:55:00
3:35 AM,27.3,27.3,100,30.25,0.8,Calm,Calm,-,N/A,,Overcast,0,2013-02-08 09:35:00
3:55 AM,27.1,27.1,100,30.24,0.5,SSE,3.5,-,N/A,Fog,Light Freezing Fog,160,2013-02-08 09:55:00
4:15 AM,27.0,27.0,100,30.24,0.5,South,3.5,-,N/A,Fog,Light Freezing Fog,170,2013-02-08 10:15:00
4:35 AM,27.0,27.0,100,30.24,0.5,SE,3.5,-,N/A,Fog,Light Freezing Fog,130,2013-02-08 10:35:00
4:55 AM,27.1,27.1,100,30.24,0.2,Calm,Calm,-,N/A,Fog,Light Freezing Fog,0,2013-02-08 10:55:00
5:15 AM,26.8,26.8,100,30.25,0.5,SSE,5.8,-,N/A,Fog,Light Freezing Fog,160,2013-02-08 11:15:00
5:35 AM,26.6,26.6,100,30.25,0.2,Calm,Calm,-,N/A,Fog,Light Freezing Fog,0,2013-02-08 11:35:00
5:55 AM,26.8,26.8,100,30.25,0.2,ESE,5.8,-,N/A,Fog,Light Freezing Fog,120,2013-02-08 11:55:00
6:15 AM,26.6,26.6,100,30.24,0.2,SE,6.9,-,N/A,Fog,Light Freezing Fog,130,2013-02-08 12:15:00
6:35 AM,27.0,27.0,100,30.24,0.2,SSE,6.9,-,N/A,Fog,Light Freezing Fog,150,2013-02-08 12:35:00
6:55 AM,27.0,27.0,100,30.25,0.2,SE,5.8,-,N/A,Fog,Light Freezing Fog,130,2013-02-08 12:55:00
7:15 AM,26.8,26.8,100,30.24,0.2,SE,9.2,-,N/A,Fog,Light Freezing Fog,130,2013-02-08 13:15:00
7:35 AM,26.6,26.6,100,30.25,0.2,South,5.8,-,N/A,Fog,Light Freezing Fog,170,2013-02-08 13:35:00
7:55 AM,26.6,26.6,100,30.25,0.5,SSE,4.6,-,N/A,Fog,Light Freezing Fog,150,2013-02-08 13:55:00
8:15 AM,26.6,26.6,100,30.25,0.2,SE,6.9,-,N/A,Fog,Light Freezing Fog,140,2013-02-08 14:15:00
8:35 AM,27.0,27.0,100,30.25,0.2,SSE,8.1,-,N/A,Fog,Light Freezing Fog,150,2013-02-08 14:35:00
8:55 AM,-9999,-9999,N/A,30.25,0.2,SSE,8.1,-,N/A,Fog,Fog,150,2013-02-08 14:55:00
9:15 AM,-9999,-9999,N/A,30.25,0.2,SSE,9.2,-,N/A,Fog,Fog,160,2013-02-08 15:15:00
9:35 AM,-9999,-9999,N/A,30.24,0.2,SSE,9.2,-,N/A,Fog,Fog,150,2013-02-08 15:35:00
9:55 AM,27.5,27.5,100,30.25,0.2,SSE,9.2,-,N/A,Fog,Light Freezing Fog,150,2013-02-08 15:55:00
10:15 AM,27.7,27.7,100,30.25,0.2,SSE,9.2,-,N/A,Fog,Light Freezing Fog,150,2013-02-08 16:15:00
10:35 AM,27.9,27.9,100,30.26,0.2,SSE,12.7,-,N/A,Fog,Light Freezing Fog,160,2013-02-08 16:35:00
10:55 AM,28.2,28.2,100,30.26,0.5,SSE,10.4,-,N/A,Fog,Light Freezing Fog,160,2013-02-08 16:55:00
11:15 AM,28.2,28.2,100,30.26,0.5,South,9.2,-,N/A,Fog,Light Freezing Fog,170,2013-02-08 17:15:00
11:35 AM,28.6,28.6,100,30.26,0.5,SSE,9.2,-,N/A,Fog,Light Freezing Fog,150,2013-02-08 17:35:00
11:55 AM,28.9,28.9,100,30.26,0.5,SSE,11.5,-,N/A,Fog,Light Freezing Fog,160,2013-02-08 17:55:00
12:15 PM,29.3,29.3,100,30.24,0.5,SSE,11.5,-,N/A,Fog,Light Freezing Fog,150,2013-02-08 18:15:00
12:35 PM,29.5,29.5,100,30.22,1.0,SSE,10.4,-,N/A,,Overcast,150,2013-02-08 18:35:00
12:55 PM,29.8,29.8,100,30.20,0.8,SSE,12.7,-,N/A,,Overcast,150,2013-02-08 18:55:00
1:15 PM,30.0,30.0,100,30.19,1.0,SSE,11.5,-,N/A,,Overcast,150,2013-02-08 19:15:00
1:35 PM,30.2,30.2,100,30.19,1.8,SSE,13.8,-,N/A,,Overcast,150,2013-02-08 19:35:00
1:55 PM,30.9,30.9,100,30.18,3.0,SSE,13.8,-,N/A,,Overcast,160,2013-02-08 19:55:00
2:15 PM,31.5,31.5,100,30.16,3.0,SSE,13.8,-,N/A,,Overcast,160,2013-02-08 20:15:00
2:35 PM,31.8,31.8,100,30.14,4.0,SSE,13.8,-,N/A,,Overcast,160,2013-02-08 20:35:00
2:55 PM,32.0,32.0,100,30.12,4.0,SSE,16.1,-,N/A,,Overcast,150,2013-02-08 20:55:00
3:15 PM,32.0,32.0,100,30.11,4.0,SSE,16.1,20.7,N/A,,Mostly Cloudy,160,2013-02-08 21:15:00
3:35 PM,34.3,34.2,99,30.12,4.0,SSE,15.0,18.4,N/A,,Scattered Clouds,160,2013-02-08 21:35:00
3:55 PM,35.4,32.7,90,30.11,4.0,SSE,15.0,-,N/A,,Scattered Clouds,160,2013-02-08 21:55:00
4:15 PM,35.4,32.9,91,30.10,5.0,SSE,13.8,19.6,N/A,,Clear,160,2013-02-08 22:15:00
4:35 PM,36.0,32.0,86,30.09,5.0,SSE,16.1,-,N/A,,Clear,160,2013-02-08 22:35:00
4:55 PM,36.1,32.0,85,30.08,5.0,SSE,13.8,-,N/A,,Clear,160,2013-02-08 22:55:00
5:15 PM,36.5,32.0,84,30.07,7.0,SSE,15.0,-,N/A,,Clear,150,2013-02-08 23:15:00
5:35 PM,36.5,32.0,84,30.06,7.0,SSE,12.7,-,N/A,,Clear,160,2013-02-08 23:35:00
5:55 PM,36.7,31.8,83,30.06,7.0,SSE,17.3,21.9,N/A,,Clear,160,2013-02-08 23:55:00
6:15 PM,36.3,31.1,81,30.06,10.0,SSE,17.3,-,N/A,,Clear,160,2013-02-09 00:15:00
6:35 PM,35.2,31.1,85,30.05,10.0,SSE,15.0,-,N/A,,Clear,160,2013-02-09 00:35:00
6:55 PM,34.7,31.1,87,30.05,7.0,SSE,12.7,18.4,N/A,,Clear,160,2013-02-09 00:55:00
7:15 PM,34.7,30.7,85,30.05,10.0,SSE,15.0,19.6,N/A,,Clear,160,2013-02-09 01:15:00
7:35 PM,33.8,30.7,89,30.04,7.0,SSE,15.0,21.9,N/A,,Clear,160,2013-02-09 01:35:00
7:55 PM,34.0,30.7,88,30.04,7.0,SSE,17.3,23.0,N/A,,Clear,160,2013-02-09 01:55:00
8:15 PM,33.8,30.7,89,30.03,5.0,SSE,17.3,23.0,N/A,,Clear,160,2013-02-09 02:15:00
8:35 PM,33.4,30.7,90,30.06,5.0,South,15.0,-,N/A,,Clear,170,2013-02-09 02:35:00
8:55 PM,32.9,30.9,92,30.06,5.0,SSE,11.5,-,N/A,,Clear,160,2013-02-09 02:55:00
9:15 PM,32.4,30.9,94,30.06,4.0,SSE,12.7,18.4,N/A,,Clear,160,2013-02-09 03:15:00
9:35 PM,32.2,31.1,96,30.06,4.0,SSE,11.5,-,N/A,,Clear,160,2013-02-09 03:35:00
9:55 PM,32.0,31.1,96,30.05,4.0,SSE,13.8,-,N/A,,Clear,160,2013-02-09 03:55:00
10:15 PM,32.0,31.1,96,30.05,4.0,SSE,12.7,-,N/A,,Clear,150,2013-02-09 04:15:00
10:35 PM,32.0,31.1,96,30.05,4.0,SSE,12.7,-,N/A,,Clear,150,2013-02-09 04:35:00
10:55 PM,31.6,31.1,98,30.04,4.0,SSE,12.7,-,N/A,,Clear,160,2013-02-09 04:55:00
11:15 PM,31.8,31.1,97,30.03,4.0,SSE,16.1,-,N/A,,Clear,150,2013-02-09 05:15:00
11:35 PM,32.0,30.9,96,30.02,5.0,SSE,17.3,21.9,N/A,,Clear,150,2013-02-09 05:35:00
11:55 PM,32.0,30.7,95,30.02,5.0,SSE,17.3,21.9,N/A,,Clear,150,2013-02-09 05:55:00